Wind_Speed
46 45 43 42 40 39 38 36 34 33 32 31 30 29 28 27 26 25 24 24 24 24 24 24 24 25 26 27 28 29 29 31 32 33 34 36 37 38 39 40 41 42 42
48 46 45 44 42 40 39 38 36 34 33 32 31 30 29 28 27 26 26 25 25 25 25 25 26 26 27 28 29 30 31 32 34 35 36 37 39 40 41 42 43 43 44
49 48 46 45 44 42 40 39 37 36 34 33 32 30 29 29 28 27 27 26 26 26 26 26 27 27 28 29 30 31 32 34 35 37 38 39 40 41 42 43 44 44 45
51 50 47 46 45 43 41 40 38 36 35 33 32 31 30 29 28 28 28 27 27 27 27 27 28 29 29 30 32 33 34 35 37 38 39 40 41 42 43 44 45 45 46
52 51 50 47 46 44 42 41 39 37 36 34 32 31 31 30 29 29 29 28 28 28 28 28 29 30 31 32 33 34 35 37 38 39 40 41 43 43 44 45 45 46 47
53 52 51 49 46 45 44 42 40 38 37 35 33 32 31 30 30 30 30 29 29 29 29 29 30 31 32 33 34 35 37 38 39 40 42 43 44 44 45 46 46 48 49
54 53 52 50 47 45 44 42 41 39 38 36 35 33 32 31 31 31 30 30 30 30 30 30 31 32 33 34 35 36 38 39 40 41 42 43 45 45 46 47 48 49 50
54 52 52 49 47 46 44 42 41 40 38 37 36 35 34 33 32 31 31 31 31 31 31 31 32 33 34 35 36 37 39 40 41 42 43 44 45 46 47 49 49 50 51
55 53 52 50 48 47 46 43 41 40 39 38 37 36 35 34 34 32 32 32 32 31 31 32 33 34 35 36 37 39 40 41 42 43 44 45 47 47 49 50 50 51 52
55 52 51 51 49 47 46 45 43 41 40 38 37 36 36 35 34 33 33 33 32 31 32 32 33 34 36 37 38 39 40 42 43 44 45 46 47 48 49 50 51 52 53
56 52 51 50 48 46 46 44 43 41 40 39 38 37 36 35 35 34 33 32 32 32 33 33 34 35 36 37 38 39 41 42 43 44 45 47 48 49 50 51 52 53 54
56 53 51 49 47 46 45 43 42 42 41 39 38 37 36 35 35 33 33 33 33 33 34 34 35 36 37 38 39 40 41 42 43 44 46 47 48 50 51 52 53 54 55
56 53 50 49 47 46 45 43 42 42 40 38 37 37 36 36 35 34 33 34 34 34 34 35 36 37 38 39 40 41 42 42 44 45 46 47 49 50 52 53 54 55 56
56 55 52 49 47 46 44 43 42 41 39 38 37 36 36 36 35 34 34 34 34 34 35 35 36 37 38 39 40 41 41 43 44 45 46 48 50 51 52 53 54 56 57
57 53 51 49 47 45 44 43 42 41 39 39 38 37 36 36 35 34 34 35 35 35 34 35 36 37 38 39 40 41 42 43 45 46 48 49 50 52 52 53 55 57 59
56 53 49 48 47 45 44 43 42 41 39 38 38 37 36 36 35 34 35 35 35 34 34 35 37 37 38 39 41 41 42 44 45 47 48 49 51 52 53 54 56 58 60
55 53 50 47 46 44 44 43 42 40 39 38 37 36 36 35 35 34 34 34 34 34 34 35 36 37 38 39 40 41 43 45 46 47 48 50 51 52 54 56 58 59 60
53 52 50 48 46 44 44 42 41 40 38 37 37 37 36 35 35 35 34 33 34 34 34 35 36 37 38 39 40 42 44 45 45 47 48 50 51 53 55 57 58 59 59
52 51 49 47 45 44 44 43 41 40 38 37 37 36 36 35 34 34 33 33 34 34 35 36 37 37 38 39 41 42 44 44 45 47 48 50 52 54 56 57 58 59 60
52 51 49 47 43 43 43 43 41 40 38 37 36 35 35 34 33 33 33 33 32 33 35 35 36 37 38 40 41 43 43 44 45 47 49 50 52 54 55 57 58 59 60
50 50 49 47 44 42 41 40 40 39 37 36 35 34 33 33 33 33 32 32 32 33 35 35 35 37 39 41 42 42 43 44 45 47 49 50 52 54 55 56 58 59 60
49 48 47 47 44 41 39 38 39 38 36 35 34 33 33 33 32 32 31 31 32 34 34 35 35 37 39 40 41 42 43 44 45 47 48 50 52 53 54 56 58 59 60
49 48 47 45 43 41 39 39 39 38 37 36 34 33 33 33 32 31 31 32 33 34 34 35 36 37 38 39 41 41 42 44 45 46 48 50 51 53 55 57 58 59 59
48 47 46 43 41 41 41 40 39 39 39 37 35 34 33 31 31 31 32 32 32 32 33 34 36 37 38 38 39 41 42 43 45 46 48 50 51 54 56 57 58 58 58
47 46 45 43 42 41 40 39 38 38 38 36 34 33 32 31 30 31 32 32 31 32 33 34 35 36 37 38 39 41 42 43 44 46 48 50 51 53 55 56 57 57 56
47 46 45 43 41 40 40 39 38 38 37 35 35 34 32 31 31 31 31 31 30 31 33 34 35 36 37 38 40 41 42 43 45 46 48 50 52 53 53 54 56 55 54
Wind_Direction
236 236 236 237 239 240 242 243 245 246 249 252 256 258 260 263 265 267 270 274 278 283 287 289 291 295 298 301 304 307 310 313 315 316 317 318 319 319 319 319 319 319 319
235 235 236 237 237 239 241 243 245 247 249 252 254 257 259 262 263 266 269 274 278 283 287 289 291 294 297 300 303 306 309 312 314 316 316 317 318 318 319 319 319 319 319
233 233 235 236 237 238 239 242 245 247 250 251 254 257 259 261 263 266 269 273 278 283 287 289 291 294 297 299 302 305 308 311 313 315 316 317 317 318 318 318 318 318 318
233 234 234 236 236 237 239 241 244 247 249 251 254 256 258 261 263 265 269 273 278 282 286 288 291 294 297 300 302 304 307 310 312 314 316 316 317 317 318 318 318 318 318
232 233 234 234 236 236 238 240 243 245 247 250 253 256 258 261 263 265 269 273 277 282 286 289 291 294 297 299 302 304 307 309 311 313 315 316 316 317 317 317 317 318 318
232 233 234 233 234 236 238 240 242 245 247 249 252 255 258 261 263 265 269 273 277 282 285 288 291 294 297 298 301 304 306 308 311 313 315 315 316 317 317 317 317 317 317
229 232 233 233 234 236 238 239 242 245 247 249 252 255 258 262 264 266 269 273 277 281 285 288 291 294 296 298 300 303 305 307 310 312 314 315 316 317 317 317 317 317 317
228 231 232 232 234 235 237 239 241 244 246 249 252 255 257 261 264 267 269 272 277 280 284 288 291 294 296 298 300 302 304 307 309 312 313 315 316 316 317 317 317 317 316
226 229 230 231 233 235 237 239 241 244 247 250 253 256 258 260 264 267 269 272 276 279 283 288 292 294 296 298 300 302 304 307 309 311 313 314 315 316 316 317 317 317 317
225 228 230 230 232 234 237 239 241 244 247 250 253 256 258 260 263 266 269 272 275 279 283 288 292 294 296 299 301 302 305 307 309 311 312 314 315 316 317 317 317 317 317
224 227 229 230 232 234 237 239 241 243 246 249 253 256 259 261 263 266 270 272 275 279 283 288 292 295 297 300 302 303 305 308 310 311 312 313 315 316 316 316 317 317 317
223 226 229 230 232 234 236 239 242 244 247 250 252 256 259 261 263 265 268 271 275 279 284 288 292 295 297 300 302 303 306 308 310 311 312 313 314 315 316 316 317 317 317
224 226 228 229 231 233 235 238 241 244 246 250 253 256 258 261 263 264 267 271 275 279 284 289 293 295 298 300 302 304 306 308 310 311 312 313 314 315 316 316 317 317 317
224 226 228 228 229 232 234 237 241 244 246 249 251 255 257 260 262 265 268 271 275 279 283 288 293 296 299 300 302 304 306 308 310 311 312 313 314 315 316 316 317 317 318
224 226 228 228 230 231 233 237 240 243 245 247 251 254 257 260 263 266 270 273 276 280 284 288 292 297 299 301 302 305 307 309 310 311 312 313 314 315 316 316 317 317 318
225 226 228 230 231 232 234 236 239 242 245 247 251 253 256 260 263 267 271 275 278 282 285 289 293 297 299 301 303 305 307 309 310 311 312 313 314 315 316 316 317 317 318
225 225 228 231 232 233 235 237 239 242 244 247 249 252 256 259 263 267 272 276 279 283 286 290 294 297 299 301 303 305 307 309 310 311 312 313 314 315 316 316 317 318 318
225 226 228 230 232 234 235 237 239 241 244 246 248 252 256 261 265 268 272 276 279 283 287 290 294 297 300 302 304 306 308 309 310 311 312 314 315 315 316 317 318 319 320
225 226 228 230 233 234 236 238 239 241 244 246 249 253 258 261 266 268 271 276 279 283 288 291 294 297 300 302 305 307 308 310 311 312 313 314 315 316 317 319 320 321 321
225 225 228 229 232 234 236 238 239 241 244 247 250 254 257 261 265 269 272 276 279 284 288 293 295 298 301 304 305 307 308 310 311 313 314 315 316 317 318 320 320 321 322
224 225 228 229 231 234 235 237 238 240 244 248 249 252 256 261 265 269 272 275 279 284 289 293 296 299 302 304 305 307 309 310 312 314 315 316 317 318 320 321 322 322 323
222 225 226 228 230 232 234 235 237 239 243 247 249 253 258 261 264 268 271 275 280 286 290 293 296 300 302 304 306 308 309 311 312 313 315 317 318 320 321 322 322 323 324
223 224 225 226 228 230 232 234 237 240 244 247 249 253 257 260 263 267 272 277 282 287 290 293 297 301 302 305 306 309 311 312 314 315 316 318 320 321 322 322 323 324 325
221 222 224 225 227 230 232 234 236 240 244 246 250 253 257 261 265 270 274 278 282 287 289 294 297 300 302 305 307 310 312 313 315 316 317 319 321 322 322 323 324 325 326
223 223 222 225 229 231 232 234 235 239 242 245 249 252 255 261 265 270 274 277 281 285 289 294 297 299 302 305 309 312 313 314 316 317 318 320 322 323 323 324 325 326 327
223 224 224 225 229 230 231 233 235 238 241 245 248 252 256 260 265 270 273 277 280 285 289 293 296 299 304 307 310 312 313 315 317 318 319 321 322 324 324 325 326 327 328
Height
5795 5799 5803 5808 5812 5815 5818 5822 5824 5827 5829 5831 5832 5834 5835 5836 5837 5837 5837 5837 5836 5835 5834 5833 5831 5830 5828 5826 5823 5821 5818 5814 5811 5807 5803 5799 5795 5790 5785 5781 5776 5771 5766
5786 5791 5795 5800 5805 5808 5812 5815 5818 5821 5823 5825 5827 5828 5830 5831 5832 5832 5832 5832 5832 5831 5830 5828 5827 5825 5823 5821 5818 5816 5812 5809 5805 5801 5797 5793 5788 5784 5779 5774 5769 5764 5758
5778 5783 5788 5793 5797 5801 5805 5809 5812 5815 5818 5820 5821 5823 5824 5825 5826 5827 5827 5827 5827 5826 5825 5823 5822 5820 5818 5816 5813 5810 5807 5803 5800 5796 5791 5787 5782 5777 5772 5767 5762 5756 5751
5769 5775 5780 5784 5789 5794 5798 5802 5805 5809 5812 5814 5816 5817 5818 5820 5821 5822 5822 5822 5821 5821 5820 5818 5816 5814 5812 5810 5807 5804 5801 5798 5794 5789 5785 5780 5775 5770 5765 5760 5754 5749 5743
5760 5766 5772 5776 5781 5786 5791 5795 5799 5802 5805 5808 5810 5811 5813 5814 5815 5816 5816 5816 5816 5815 5814 5813 5811 5809 5807 5804 5801 5798 5795 5791 5787 5783 5778 5774 5768 5763 5758 5752 5747 5741 5735
5751 5757 5763 5768 5774 5779 5783 5788 5792 5795 5798 5801 5803 5805 5807 5808 5809 5810 5810 5811 5810 5809 5808 5807 5805 5803 5801 5798 5795 5792 5789 5785 5781 5776 5771 5766 5761 5756 5750 5745 5739 5733 5726
5741 5748 5754 5760 5766 5771 5775 5780 5784 5788 5791 5794 5797 5799 5800 5802 5803 5804 5804 5804 5804 5803 5802 5801 5799 5797 5794 5792 5789 5785 5782 5778 5774 5769 5764 5759 5754 5748 5742 5737 5730 5724 5718
5732 5738 5745 5751 5757 5763 5767 5772 5777 5781 5784 5787 5790 5792 5794 5796 5797 5797 5798 5798 5798 5797 5796 5794 5793 5790 5788 5785 5782 5779 5775 5771 5767 5762 5757 5752 5746 5740 5734 5728 5722 5715 5709
5723 5729 5736 5743 5749 5755 5760 5765 5769 5774 5777 5780 5783 5786 5787 5789 5790 5791 5791 5792 5791 5790 5789 5788 5786 5784 5781 5778 5775 5772 5768 5764 5759 5754 5749 5744 5738 5732 5726 5720 5713 5706 5699
5713 5720 5727 5734 5740 5746 5752 5757 5762 5766 5770 5773 5776 5778 5781 5782 5783 5784 5785 5785 5784 5784 5783 5781 5779 5777 5774 5771 5768 5764 5760 5756 5752 5747 5742 5736 5730 5724 5717 5711 5704 5697 5690
5704 5711 5718 5726 5732 5738 5744 5749 5754 5758 5762 5765 5768 5771 5773 5775 5776 5777 5778 5778 5778 5777 5776 5774 5772 5770 5767 5764 5761 5757 5753 5749 5744 5739 5734 5728 5722 5715 5709 5702 5695 5687 5680
5694 5703 5710 5717 5724 5730 5736 5741 5746 5750 5754 5758 5761 5763 5765 5767 5769 5770 5771 5771 5770 5770 5769 5767 5765 5763 5760 5757 5753 5749 5745 5741 5736 5731 5725 5719 5713 5707 5700 5693 5685 5678 5670
5685 5694 5702 5709 5716 5722 5727 5733 5738 5742 5746 5750 5753 5756 5758 5760 5761 5763 5763 5763 5763 5763 5762 5760 5758 5755 5752 5749 5746 5742 5738 5733 5728 5723 5717 5711 5705 5698 5691 5683 5676 5668 5659
5678 5685 5693 5700 5707 5713 5719 5725 5730 5734 5739 5742 5745 5748 5750 5752 5754 5755 5756 5757 5756 5756 5755 5753 5751 5748 5745 5741 5738 5734 5730 5725 5720 5715 5709 5702 5696 5689 5681 5674 5666 5658 5649
5669 5676 5685 5692 5699 5705 5711 5717 5722 5726 5731 5735 5738 5741 5743 5745 5746 5747 5748 5749 5749 5749 5748 5745 5743 5741 5737 5734 5730 5726 5722 5717 5712 5706 5700 5693 5687 5679 5672 5664 5656 5647 5638
5660 5669 5676 5684 5691 5697 5703 5709 5714 5718 5723 5727 5730 5733 5735 5737 5739 5740 5741 5741 5741 5741 5740 5738 5736 5733 5730 5726 5722 5718 5714 5709 5703 5697 5691 5684 5677 5670 5662 5654 5645 5636 5627
5652 5660 5668 5676 5683 5689 5695 5700 5706 5711 5715 5719 5722 5725 5728 5730 5731 5732 5733 5734 5734 5733 5732 5730 5728 5725 5722 5718 5715 5710 5706 5700 5695 5688 5682 5675 5668 5660 5652 5644 5635 5625 5616
5642 5651 5660 5668 5675 5681 5686 5692 5698 5703 5707 5711 5715 5718 5720 5722 5724 5725 5726 5726 5726 5725 5724 5722 5720 5717 5714 5711 5707 5702 5697 5692 5686 5680 5673 5666 5658 5650 5642 5633 5624 5614 5604
5634 5643 5652 5659 5666 5673 5678 5684 5690 5695 5700 5704 5707 5710 5712 5714 5716 5717 5718 5718 5718 5717 5716 5715 5712 5709 5706 5702 5698 5694 5689 5683 5677 5671 5663 5656 5648 5640 5631 5622 5613 5603 5593
5625 5635 5643 5651 5658 5664 5670 5676 5682 5687 5692 5696 5699 5702 5705 5707 5708 5709 5710 5710 5710 5709 5708 5707 5704 5701 5698 5694 5690 5686 5680 5675 5669 5662 5654 5646 5638 5630 5621 5612 5603 5593 5583
5617 5626 5634 5642 5649 5656 5662 5668 5674 5680 5684 5688 5691 5694 5697 5699 5700 5701 5702 5703 5702 5702 5700 5699 5696 5693 5690 5686 5682 5677 5672 5666 5660 5652 5645 5637 5629 5621 5611 5601 5592 5582 5571
5609 5618 5626 5634 5641 5648 5655 5661 5667 5672 5676 5680 5683 5687 5689 5691 5692 5693 5694 5695 5695 5694 5692 5691 5688 5685 5682 5678 5673 5668 5663 5657 5652 5645 5636 5628 5619 5610 5601 5592 5582 5572 5561
5601 5609 5617 5625 5633 5640 5647 5653 5658 5664 5668 5672 5676 5679 5681 5683 5684 5686 5686 5687 5687 5686 5685 5683 5680 5677 5673 5670 5665 5660 5654 5648 5641 5634 5627 5619 5610 5600 5591 5581 5571 5561 5551
5593 5601 5610 5618 5625 5632 5638 5644 5650 5655 5660 5664 5668 5671 5674 5675 5677 5678 5679 5679 5679 5678 5676 5675 5672 5669 5665 5661 5656 5651 5645 5639 5632 5625 5618 5610 5601 5591 5581 5571 5561 5551 5541
5585 5594 5602 5610 5617 5624 5630 5636 5642 5647 5652 5657 5660 5663 5666 5668 5669 5670 5671 5671 5671 5670 5668 5666 5664 5661 5657 5652 5647 5642 5637 5630 5624 5616 5609 5601 5592 5583 5572 5561 5551 5541 5531
5578 5586 5594 5602 5609 5616 5622 5628 5634 5639 5644 5649 5652 5656 5659 5660 5662 5662 5663 5664 5663 5662 5660 5658 5656 5652 5649 5644 5639 5634 5628 5622 5615 5608 5600 5592 5583 5574 5565 5553 5542 5532 5522